Year,Month,Day,Hour,Minute,Value (Times are PST for temperature in C)
2023,05,15,00,00,21.00
2023,05,15,00,01,21.00
2023,05,15,00,02,21.00
2023,05,15,00,03,21.00
2023,05,15,00,04,21.00
2023,05,15,00,05,21.00
2023,05,15,00,06,21.00
2023,05,15,00,07,21.00
2023,05,15,00,08,21.00
2023,05,15,00,09,21.00
2023,05,15,00,10,21.00
2023,05,15,00,11,21.00
2023,05,15,00,12,21.00
2023,05,15,00,13,21.00
2023,05,15,00,14,21.00
2023,05,15,00,15,21.00
2023,05,15,00,16,21.00
2023,05,15,00,17,21.00
2023,05,15,00,18,21.00
2023,05,15,00,19,20.90
2023,05,15,00,20,20.90
2023,05,15,00,21,20.90
2023,05,15,00,22,20.90
2023,05,15,00,23,20.90
2023,05,15,00,24,20.90
2023,05,15,00,25,20.90
2023,05,15,00,26,20.90
2023,05,15,00,27,20.90
2023,05,15,00,28,20.80
2023,05,15,00,29,20.80
2023,05,15,00,30,20.80
2023,05,15,00,31,20.80
2023,05,15,00,32,20.80
2023,05,15,00,33,20.80
2023,05,15,00,34,20.80
2023,05,15,00,35,20.70
2023,05,15,00,36,20.70
2023,05,15,00,37,20.70
2023,05,15,00,38,20.70
2023,05,15,00,39,20.70
2023,05,15,00,40,20.70
2023,05,15,00,41,20.70
2023,05,15,00,42,20.60
2023,05,15,00,43,20.60
2023,05,15,00,44,20.60
2023,05,15,00,45,20.60
2023,05,15,00,46,20.60
2023,05,15,00,47,20.60
2023,05,15,00,48,20.60
2023,05,15,00,49,20.60
2023,05,15,00,50,20.60
2023,05,15,00,51,20.60
2023,05,15,00,52,20.60
2023,05,15,00,53,20.60
2023,05,15,00,54,20.60
2023,05,15,00,55,20.50
2023,05,15,00,56,20.50
2023,05,15,00,57,20.60
2023,05,15,00,58,20.50
2023,05,15,00,59,20.50
2023,05,15,01,00,20.50
2023,05,15,01,01,20.50
2023,05,15,01,02,20.50
2023,05,15,01,03,20.50
2023,05,15,01,04,20.50
2023,05,15,01,05,20.50
2023,05,15,01,06,20.50
2023,05,15,01,07,20.50
2023,05,15,01,08,20.50
2023,05,15,01,09,20.50
2023,05,15,01,10,20.50
2023,05,15,01,11,20.40
2023,05,15,01,12,20.40
2023,05,15,01,13,20.40
2023,05,15,01,14,20.40
2023,05,15,01,15,20.40
2023,05,15,01,16,20.40
2023,05,15,01,17,20.40
2023,05,15,01,18,20.40
2023,05,15,01,19,20.40
2023,05,15,01,20,20.30
2023,05,15,01,21,20.30
2023,05,15,01,22,20.30
2023,05,15,01,23,20.30
2023,05,15,01,24,20.30
2023,05,15,01,25,20.30
2023,05,15,01,26,20.30
2023,05,15,01,27,20.30
2023,05,15,01,28,20.20
2023,05,15,01,29,20.20
2023,05,15,01,30,20.20
2023,05,15,01,31,20.20
2023,05,15,01,32,20.20
2023,05,15,01,33,20.20
2023,05,15,01,34,20.10
2023,05,15,01,35,20.10
2023,05,15,01,36,20.10
2023,05,15,01,37,20.10
2023,05,15,01,38,20.10
2023,05,15,01,39,20.00
2023,05,15,01,40,20.00
2023,05,15,01,41,20.00
2023,05,15,01,42,19.90
2023,05,15,01,43,19.90
2023,05,15,01,44,19.90
2023,05,15,01,45,19.90
2023,05,15,01,46,19.90
2023,05,15,01,47,19.90
2023,05,15,01,48,19.80
2023,05,15,01,49,19.80
2023,05,15,01,50,19.80
2023,05,15,01,51,19.80
2023,05,15,01,52,19.80
2023,05,15,01,53,19.80
2023,05,15,01,54,19.80
2023,05,15,01,55,19.80
2023,05,15,01,56,19.80
2023,05,15,01,57,19.70
2023,05,15,01,58,19.70
2023,05,15,01,59,19.70
2023,05,15,02,00,19.70
2023,05,15,02,01,19.70
2023,05,15,02,02,19.70
2023,05,15,02,03,19.70
2023,05,15,02,04,19.70
2023,05,15,02,05,19.60
2023,05,15,02,06,19.60
2023,05,15,02,07,19.60
2023,05,15,02,08,19.60
2023,05,15,02,09,19.60
2023,05,15,02,10,19.60
2023,05,15,02,11,19.50
2023,05,15,02,12,19.50
2023,05,15,02,13,19.50
2023,05,15,02,14,19.50
2023,05,15,02,15,19.40
2023,05,15,02,16,19.40
2023,05,15,02,17,19.40
2023,05,15,02,18,19.40
2023,05,15,02,19,19.40
2023,05,15,02,20,19.40
2023,05,15,02,21,19.30
2023,05,15,02,22,19.30
2023,05,15,02,23,19.30
2023,05,15,02,24,19.30
2023,05,15,02,25,19.30
2023,05,15,02,26,19.20
2023,05,15,02,27,19.20
2023,05,15,02,28,19.20
2023,05,15,02,29,19.20
2023,05,15,02,30,19.20
2023,05,15,02,31,19.20
2023,05,15,02,32,19.10
2023,05,15,02,33,19.10
2023,05,15,02,34,19.10
2023,05,15,02,35,19.10
2023,05,15,02,36,19.10
2023,05,15,02,37,19.10
2023,05,15,02,38,19.10
2023,05,15,02,39,19.00
2023,05,15,02,40,19.00
2023,05,15,02,41,19.00
2023,05,15,02,42,19.00
2023,05,15,02,43,19.00
2023,05,15,02,44,19.00
2023,05,15,02,45,19.00
2023,05,15,02,46,19.00
2023,05,15,02,47,19.00
2023,05,15,02,48,19.00
2023,05,15,02,49,19.00
2023,05,15,02,50,19.00
2023,05,15,02,51,19.00
2023,05,15,02,52,19.00
2023,05,15,02,53,19.10
2023,05,15,02,54,19.00
2023,05,15,02,55,19.10
2023,05,15,02,56,19.10
2023,05,15,02,57,19.00
2023,05,15,02,58,19.00
2023,05,15,02,59,19.00
2023,05,15,03,00,19.00
2023,05,15,03,01,19.00
2023,05,15,03,02,19.00
2023,05,15,03,03,19.00
2023,05,15,03,04,19.00
2023,05,15,03,05,19.00
2023,05,15,03,06,19.00
2023,05,15,03,07,18.90
2023,05,15,03,08,18.90
2023,05,15,03,09,18.90
2023,05,15,03,10,18.90
2023,05,15,03,11,18.90
2023,05,15,03,12,18.90
2023,05,15,03,13,18.90
2023,05,15,03,14,19.00
2023,05,15,03,15,19.00
2023,05,15,03,16,19.00
2023,05,15,03,17,19.00
2023,05,15,03,18,19.00
2023,05,15,03,19,19.10
2023,05,15,03,20,19.10
2023,05,15,03,21,19.10
2023,05,15,03,22,19.10
2023,05,15,03,23,19.20
2023,05,15,03,24,19.20
2023,05,15,03,25,19.20
2023,05,15,03,26,19.30
2023,05,15,03,27,19.30
2023,05,15,03,28,19.30
2023,05,15,03,29,19.30
2023,05,15,03,30,19.20
2023,05,15,03,31,19.20
2023,05,15,03,32,19.10
2023,05,15,03,33,19.00
2023,05,15,03,34,18.90
2023,05,15,03,35,18.80
2023,05,15,03,36,18.70
2023,05,15,03,37,18.60
2023,05,15,03,38,18.60
2023,05,15,03,39,18.50
2023,05,15,03,40,18.40
2023,05,15,03,41,18.40
2023,05,15,03,42,18.30
2023,05,15,03,43,18.20
2023,05,15,03,44,18.10
2023,05,15,03,45,18.00
2023,05,15,03,46,17.90
2023,05,15,03,47,17.80
2023,05,15,03,48,17.60
2023,05,15,03,49,17.50
2023,05,15,03,50,17.40
2023,05,15,03,51,17.20
2023,05,15,03,52,17.10
2023,05,15,03,53,17.00
2023,05,15,03,54,17.00
2023,05,15,03,55,16.90
2023,05,15,03,56,16.80
2023,05,15,03,57,16.80
2023,05,15,03,58,16.80
2023,05,15,03,59,16.80
2023,05,15,04,00,16.80
2023,05,15,04,01,16.80
2023,05,15,04,02,16.70
2023,05,15,04,03,16.70
2023,05,15,04,04,16.70
2023,05,15,04,05,16.70
2023,05,15,04,06,16.70
2023,05,15,04,07,16.70
2023,05,15,04,08,16.70
2023,05,15,04,09,16.70
2023,05,15,04,10,16.70
2023,05,15,04,11,16.70
2023,05,15,04,12,16.70
2023,05,15,04,13,16.80
2023,05,15,04,14,16.80
2023,05,15,04,15,16.80
2023,05,15,04,16,16.80
2023,05,15,04,17,16.80
2023,05,15,04,18,16.90
2023,05,15,04,19,16.90
2023,05,15,04,20,16.90
2023,05,15,04,21,17.00
2023,05,15,04,22,17.10
2023,05,15,04,23,17.10
2023,05,15,04,24,17.20
2023,05,15,04,25,17.20
2023,05,15,04,26,17.30
2023,05,15,04,27,17.30
2023,05,15,04,28,17.30
2023,05,15,04,29,17.40
2023,05,15,04,30,17.40
2023,05,15,04,31,17.50
2023,05,15,04,32,17.50
2023,05,15,04,33,17.60
2023,05,15,04,34,17.60
2023,05,15,04,35,17.70
2023,05,15,04,36,17.70
2023,05,15,04,37,17.80
2023,05,15,04,38,17.80
2023,05,15,04,39,17.90
2023,05,15,04,40,17.90
2023,05,15,04,41,18.00
2023,05,15,04,42,18.10
2023,05,15,04,43,18.10
2023,05,15,04,44,18.20
2023,05,15,04,45,18.20
2023,05,15,04,46,18.20
2023,05,15,04,47,18.30
2023,05,15,04,48,18.30
2023,05,15,04,49,18.30
2023,05,15,04,50,18.30
2023,05,15,04,51,18.30
2023,05,15,04,52,18.40
2023,05,15,04,53,18.40
2023,05,15,04,54,18.40
2023,05,15,04,55,18.40
2023,05,15,04,56,18.40
2023,05,15,04,57,18.40
2023,05,15,04,58,18.40
2023,05,15,04,59,18.40
2023,05,15,05,00,18.40
2023,05,15,05,01,18.40
2023,05,15,05,02,18.40
2023,05,15,05,03,18.50
2023,05,15,05,04,18.50
2023,05,15,05,05,18.50
2023,05,15,05,06,18.50
2023,05,15,05,07,18.50
2023,05,15,05,08,18.50
2023,05,15,05,09,18.60
2023,05,15,05,10,18.60
2023,05,15,05,11,18.60
2023,05,15,05,12,18.70
2023,05,15,05,13,18.70
2023,05,15,05,14,18.80
2023,05,15,05,15,18.80
2023,05,15,05,16,18.90
2023,05,15,05,17,18.90
2023,05,15,05,18,18.90
2023,05,15,05,19,19.00
2023,05,15,05,20,19.00
2023,05,15,05,21,19.10
2023,05,15,05,22,19.10
2023,05,15,05,23,19.10
2023,05,15,05,24,19.10
2023,05,15,05,25,19.20
2023,05,15,05,26,19.20
2023,05,15,05,27,19.20
2023,05,15,05,28,19.20
2023,05,15,05,29,19.20
2023,05,15,05,30,19.30
2023,05,15,05,31,19.30
2023,05,15,05,32,19.30
2023,05,15,05,33,19.30
2023,05,15,05,34,19.30
2023,05,15,05,35,19.30
2023,05,15,05,36,19.30
2023,05,15,05,37,19.30
2023,05,15,05,38,19.40
2023,05,15,05,39,19.40
2023,05,15,05,40,19.40
2023,05,15,05,41,19.40
2023,05,15,05,42,19.40
2023,05,15,05,43,19.40
2023,05,15,05,44,19.40
2023,05,15,05,45,19.30
2023,05,15,05,46,19.30
2023,05,15,05,47,19.30
2023,05,15,05,48,19.30
2023,05,15,05,49,19.30
2023,05,15,05,50,19.30
2023,05,15,05,51,19.30
2023,05,15,05,52,19.30
2023,05,15,05,53,19.30
2023,05,15,05,54,19.30
2023,05,15,05,55,19.30
2023,05,15,05,56,19.30
2023,05,15,05,57,19.30
2023,05,15,05,58,19.30
2023,05,15,05,59,19.30
2023,05,15,06,00,19.30
2023,05,15,06,01,19.30
2023,05,15,06,02,19.40
2023,05,15,06,03,19.40
2023,05,15,06,04,19.40
2023,05,15,06,05,19.40
2023,05,15,06,06,19.40
2023,05,15,06,07,19.40
2023,05,15,06,08,19.50
2023,05,15,06,09,19.40
2023,05,15,06,10,19.50
2023,05,15,06,11,19.50
2023,05,15,06,12,19.50
2023,05,15,06,13,19.50
2023,05,15,06,14,19.50
2023,05,15,06,15,19.50
2023,05,15,06,16,19.50
2023,05,15,06,17,19.50
2023,05,15,06,18,19.50
2023,05,15,06,19,19.50
2023,05,15,06,20,19.50
2023,05,15,06,21,19.60
2023,05,15,06,22,19.60
2023,05,15,06,23,19.60
2023,05,15,06,24,19.60
2023,05,15,06,25,19.60
2023,05,15,06,26,19.60
2023,05,15,06,27,19.60
2023,05,15,06,28,19.60
2023,05,15,06,29,19.60
2023,05,15,06,30,19.60
2023,05,15,06,31,19.60
2023,05,15,06,32,19.60
2023,05,15,06,33,19.60
2023,05,15,06,34,19.60
2023,05,15,06,35,19.60
2023,05,15,06,36,19.60
2023,05,15,06,37,19.60
2023,05,15,06,38,19.60
2023,05,15,06,39,19.60
2023,05,15,06,40,19.60
2023,05,15,06,41,19.60
2023,05,15,06,42,19.60
2023,05,15,06,43,19.60
2023,05,15,06,44,19.70
2023,05,15,06,45,19.70
2023,05,15,06,46,19.70
2023,05,15,06,47,19.70
2023,05,15,06,48,19.70
2023,05,15,06,49,19.70
2023,05,15,06,50,19.80
2023,05,15,06,51,19.80
2023,05,15,06,52,19.80
2023,05,15,06,53,19.90
2023,05,15,06,54,19.90
2023,05,15,06,55,19.90
2023,05,15,06,56,20.00
2023,05,15,06,57,20.00
2023,05,15,06,58,20.10
2023,05,15,06,59,20.10
2023,05,15,07,00,20.20
2023,05,15,07,01,20.20
2023,05,15,07,02,20.30
2023,05,15,07,03,20.40
2023,05,15,07,04,20.40
2023,05,15,07,05,20.40
2023,05,15,07,06,20.50
2023,05,15,07,07,20.60
2023,05,15,07,08,20.70
2023,05,15,07,09,20.70
2023,05,15,07,10,20.70
2023,05,15,07,11,20.80
2023,05,15,07,12,20.80
2023,05,15,07,13,20.90
2023,05,15,07,14,20.90
2023,05,15,07,15,21.00
2023,05,15,07,16,21.00
2023,05,15,07,17,21.10
2023,05,15,07,18,21.10
2023,05,15,07,19,21.20
2023,05,15,07,20,21.20
2023,05,15,07,21,21.30
2023,05,15,07,22,21.30
2023,05,15,07,23,21.30
2023,05,15,07,24,21.30
2023,05,15,07,25,21.30
2023,05,15,07,26,21.30
2023,05,15,07,27,21.30
2023,05,15,07,28,21.30
2023,05,15,07,29,21.30
2023,05,15,07,30,21.30
2023,05,15,07,31,21.20
2023,05,15,07,32,21.20
2023,05,15,07,33,21.20
2023,05,15,07,34,21.10
2023,05,15,07,35,21.10
2023,05,15,07,36,21.10
2023,05,15,07,37,21.00
2023,05,15,07,38,21.00
2023,05,15,07,39,20.90
2023,05,15,07,40,20.90
2023,05,15,07,41,20.80
2023,05,15,07,42,20.80
2023,05,15,07,43,20.70
2023,05,15,07,44,20.70
2023,05,15,07,45,20.60
2023,05,15,07,46,20.60
2023,05,15,07,47,20.60
2023,05,15,07,48,20.50
2023,05,15,07,49,20.60
2023,05,15,07,50,20.60
2023,05,15,07,51,20.60
2023,05,15,07,52,20.60
2023,05,15,07,53,20.60
2023,05,15,07,54,20.70
2023,05,15,07,55,20.80
2023,05,15,07,56,20.80
2023,05,15,07,57,20.90
2023,05,15,07,58,21.00
2023,05,15,07,59,21.10
2023,05,15,08,00,21.20
2023,05,15,08,01,21.20
2023,05,15,08,02,21.30
2023,05,15,08,03,21.40
2023,05,15,08,04,21.40
2023,05,15,08,05,21.40
2023,05,15,08,06,21.50
2023,05,15,08,07,21.60
2023,05,15,08,08,21.60
2023,05,15,08,09,21.60
2023,05,15,08,10,21.70
2023,05,15,08,11,21.70
2023,05,15,08,12,21.70
2023,05,15,08,13,21.80
2023,05,15,08,14,21.80
2023,05,15,08,15,21.80
2023,05,15,08,16,21.90
2023,05,15,08,17,21.90
2023,05,15,08,18,21.90
2023,05,15,08,19,22.00
2023,05,15,08,20,22.10
2023,05,15,08,21,22.10
2023,05,15,08,22,22.20
2023,05,15,08,23,22.20
2023,05,15,08,24,22.30
2023,05,15,08,25,22.40
2023,05,15,08,26,22.40
2023,05,15,08,27,22.50
2023,05,15,08,28,22.50
2023,05,15,08,29,22.60
2023,05,15,08,30,22.60
2023,05,15,08,31,22.60
2023,05,15,08,32,22.60
2023,05,15,08,33,22.50
2023,05,15,08,34,22.50
2023,05,15,08,35,22.40
2023,05,15,08,36,22.30
2023,05,15,08,37,22.20
2023,05,15,08,38,22.10
2023,05,15,08,39,22.10
2023,05,15,08,40,22.00
2023,05,15,08,41,21.90
2023,05,15,08,42,21.90
2023,05,15,08,43,21.80
2023,05,15,08,44,21.80
2023,05,15,08,45,21.80
2023,05,15,08,46,21.80
2023,05,15,08,47,21.80
2023,05,15,08,48,21.80
2023,05,15,08,49,21.80
2023,05,15,08,50,21.80
2023,05,15,08,51,21.80
2023,05,15,08,52,21.80
2023,05,15,08,53,21.80
2023,05,15,08,54,21.90
2023,05,15,08,55,21.90
2023,05,15,08,56,21.90
2023,05,15,08,57,22.00
2023,05,15,08,58,22.00
2023,05,15,08,59,22.00
2023,05,15,09,00,22.00
2023,05,15,09,01,22.10
2023,05,15,09,02,22.10
2023,05,15,09,03,22.10
2023,05,15,09,04,22.10
2023,05,15,09,05,22.20
2023,05,15,09,06,22.20
2023,05,15,09,07,22.30
2023,05,15,09,08,22.30
2023,05,15,09,09,22.40
2023,05,15,09,10,22.40
2023,05,15,09,11,22.50
2023,05,15,09,12,22.50
2023,05,15,09,13,22.60
2023,05,15,09,14,22.60
2023,05,15,09,15,22.60
2023,05,15,09,16,22.60
2023,05,15,09,17,22.70
2023,05,15,09,18,22.70
2023,05,15,09,19,22.70
2023,05,15,09,20,22.70
2023,05,15,09,21,22.70
2023,05,15,09,22,22.80
2023,05,15,09,23,22.80
2023,05,15,09,24,22.80
2023,05,15,09,25,22.80
2023,05,15,09,26,22.90
2023,05,15,09,27,22.90
2023,05,15,09,28,22.90
2023,05,15,09,29,23.00
2023,05,15,09,30,23.00
2023,05,15,09,31,23.10
2023,05,15,09,32,23.10
2023,05,15,09,33,23.10
2023,05,15,09,34,23.20
2023,05,15,09,35,23.20
2023,05,15,09,36,23.20
2023,05,15,09,37,23.20
2023,05,15,09,38,23.20
2023,05,15,09,39,23.20
2023,05,15,09,40,23.20
2023,05,15,09,41,23.20
2023,05,15,09,42,23.30
2023,05,15,09,43,23.30
2023,05,15,09,44,23.30
2023,05,15,09,45,23.40
2023,05,15,09,46,23.40
2023,05,15,09,47,23.40
2023,05,15,09,48,23.40
2023,05,15,09,49,23.50
2023,05,15,09,50,23.50
2023,05,15,09,51,23.50
2023,05,15,09,52,23.50
2023,05,15,09,53,23.50
2023,05,15,09,54,23.60
2023,05,15,09,55,23.60
2023,05,15,09,56,23.70
2023,05,15,09,57,23.70
2023,05,15,09,58,23.80
2023,05,15,09,59,23.80
2023,05,15,10,00,23.90
2023,05,15,10,01,23.90
2023,05,15,10,02,24.00
2023,05,15,10,03,24.00
2023,05,15,10,04,24.10
2023,05,15,10,05,24.10
2023,05,15,10,06,24.10
2023,05,15,10,07,24.20
2023,05,15,10,08,24.20
2023,05,15,10,09,24.30
2023,05,15,10,10,24.30
2023,05,15,10,11,24.40
2023,05,15,10,12,24.40
2023,05,15,10,13,24.40
2023,05,15,10,14,24.40
2023,05,15,10,15,24.40
2023,05,15,10,16,24.50
2023,05,15,10,17,24.50
2023,05,15,10,18,24.50
2023,05,15,10,19,24.50
2023,05,15,10,20,24.50
2023,05,15,10,21,24.40
2023,05,15,10,22,24.40
2023,05,15,10,23,24.30
2023,05,15,10,24,24.30
2023,05,15,10,25,24.20
2023,05,15,10,26,24.10
2023,05,15,10,27,24.00
2023,05,15,10,28,23.90
2023,05,15,10,29,23.90
2023,05,15,10,30,23.90
2023,05,15,10,31,23.90
2023,05,15,10,32,23.80
2023,05,15,10,33,23.80
2023,05,15,10,34,23.80
2023,05,15,10,35,23.80
2023,05,15,10,36,23.80
2023,05,15,10,37,23.80
2023,05,15,10,38,23.80
2023,05,15,10,39,23.90
2023,05,15,10,40,24.00
2023,05,15,10,41,24.10
2023,05,15,10,42,24.10
2023,05,15,10,43,24.10
2023,05,15,10,44,24.10
2023,05,15,10,45,24.10
2023,05,15,10,46,24.20
2023,05,15,10,47,24.20
2023,05,15,10,48,24.30
2023,05,15,10,49,24.30
2023,05,15,10,50,24.40
2023,05,15,10,51,24.50
2023,05,15,10,52,24.50
2023,05,15,10,53,24.60
2023,05,15,10,54,24.60
2023,05,15,10,55,24.60
2023,05,15,10,56,24.70
2023,05,15,10,57,24.70
2023,05,15,10,58,24.70
2023,05,15,10,59,24.70
2023,05,15,11,00,24.70
2023,05,15,11,01,24.70
2023,05,15,11,02,24.70
2023,05,15,11,03,24.80
2023,05,15,11,04,24.80
2023,05,15,11,05,24.80
2023,05,15,11,06,24.80
2023,05,15,11,07,24.80
2023,05,15,11,08,24.80
2023,05,15,11,09,24.70
2023,05,15,11,10,24.70
2023,05,15,11,11,24.60
2023,05,15,11,12,24.60
2023,05,15,11,13,24.50
2023,05,15,11,14,24.50
2023,05,15,11,15,24.40
2023,05,15,11,16,24.40
2023,05,15,11,17,24.50
2023,05,15,11,18,24.50
2023,05,15,11,19,24.60
2023,05,15,11,20,24.60
2023,05,15,11,21,24.70
2023,05,15,11,22,24.70
2023,05,15,11,23,24.80
2023,05,15,11,24,24.80
2023,05,15,11,25,24.80
2023,05,15,11,26,24.80
2023,05,15,11,27,24.80
2023,05,15,11,28,24.80
2023,05,15,11,29,24.80
2023,05,15,11,30,24.90
2023,05,15,11,31,24.90
2023,05,15,11,32,25.00
2023,05,15,11,33,25.10
2023,05,15,11,34,25.10
2023,05,15,11,35,25.10
2023,05,15,11,36,25.10
2023,05,15,11,37,25.20
2023,05,15,11,38,25.20
2023,05,15,11,39,25.30
2023,05,15,11,40,25.30
2023,05,15,11,41,25.40
2023,05,15,11,42,25.40
2023,05,15,11,43,25.50
2023,05,15,11,44,25.50
2023,05,15,11,45,25.60
2023,05,15,11,46,25.70
2023,05,15,11,47,25.70
2023,05,15,11,48,25.80
2023,05,15,11,49,25.80
2023,05,15,11,50,25.90
2023,05,15,11,51,25.90
2023,05,15,11,52,26.00
2023,05,15,11,53,26.00
2023,05,15,11,54,26.10
2023,05,15,11,55,26.10
2023,05,15,11,56,26.10
2023,05,15,11,57,26.10
2023,05,15,11,58,26.00
2023,05,15,11,59,26.00
2023,05,15,12,00,25.90
2023,05,15,12,01,26.00
2023,05,15,12,02,26.00
2023,05,15,12,03,26.00
2023,05,15,12,04,26.10
2023,05,15,12,05,26.10
2023,05,15,12,06,26.10
2023,05,15,12,07,26.20
2023,05,15,12,08,26.20
2023,05,15,12,09,26.30
2023,05,15,12,10,26.40
2023,05,15,12,11,26.40
2023,05,15,12,12,26.50
2023,05,15,12,13,26.60
2023,05,15,12,14,26.60
2023,05,15,12,15,26.60
2023,05,15,12,16,26.60
2023,05,15,12,17,26.60
2023,05,15,12,18,26.50
2023,05,15,12,19,26.50
2023,05,15,12,20,26.50
2023,05,15,12,21,26.60
2023,05,15,12,22,26.60
2023,05,15,12,23,26.60
2023,05,15,12,24,26.60
2023,05,15,12,25,26.60
2023,05,15,12,26,26.60
2023,05,15,12,27,26.60
2023,05,15,12,28,26.60
2023,05,15,12,29,26.50
2023,05,15,12,30,26.50
2023,05,15,12,31,26.60
2023,05,15,12,32,26.60
2023,05,15,12,33,26.60
2023,05,15,12,34,26.70
2023,05,15,12,35,26.80
2023,05,15,12,36,26.80
2023,05,15,12,37,26.90
2023,05,15,12,38,26.90
2023,05,15,12,39,26.90
2023,05,15,12,40,26.90
2023,05,15,12,41,26.90
2023,05,15,12,42,26.90
2023,05,15,12,43,26.80
2023,05,15,12,44,26.80
2023,05,15,12,45,26.80
2023,05,15,12,46,26.70
2023,05,15,12,47,26.70
2023,05,15,12,48,26.70
2023,05,15,12,49,26.70
2023,05,15,12,50,26.70
2023,05,15,12,51,26.70
2023,05,15,12,52,26.70
2023,05,15,12,53,26.60
2023,05,15,12,54,26.60
2023,05,15,12,55,26.60
2023,05,15,12,56,26.70
2023,05,15,12,57,26.70
2023,05,15,12,58,26.80
2023,05,15,12,59,26.80
2023,05,15,13,00,26.90
2023,05,15,13,01,26.90
2023,05,15,13,02,26.90
2023,05,15,13,03,26.90
2023,05,15,13,04,26.90
2023,05,15,13,05,26.90
2023,05,15,13,06,27.00
2023,05,15,13,07,27.00
2023,05,15,13,08,27.10
2023,05,15,13,09,27.10
2023,05,15,13,10,27.20
2023,05,15,13,11,27.30
2023,05,15,13,12,27.30
2023,05,15,13,13,27.40
2023,05,15,13,14,27.40
2023,05,15,13,15,27.40
2023,05,15,13,16,27.40
2023,05,15,13,17,27.50
2023,05,15,13,18,27.50
2023,05,15,13,19,27.40
2023,05,15,13,20,27.40
2023,05,15,13,21,27.40
2023,05,15,13,22,27.30
2023,05,15,13,23,27.20
2023,05,15,13,24,27.20
2023,05,15,13,25,27.20
2023,05,15,13,26,27.20
2023,05,15,13,27,27.10
2023,05,15,13,28,27.10
2023,05,15,13,29,27.10
2023,05,15,13,30,27.10
2023,05,15,13,31,27.10
2023,05,15,13,32,27.10
2023,05,15,13,33,27.20
2023,05,15,13,34,27.20
2023,05,15,13,35,27.30
2023,05,15,13,36,27.30
2023,05,15,13,37,27.40
2023,05,15,13,38,27.50
2023,05,15,13,39,27.60
2023,05,15,13,40,27.70
2023,05,15,13,41,27.70
2023,05,15,13,42,27.80
2023,05,15,13,43,27.90
2023,05,15,13,44,28.00
2023,05,15,13,45,28.10
2023,05,15,13,46,28.20
2023,05,15,13,47,28.30
2023,05,15,13,48,28.30
2023,05,15,13,49,28.30
2023,05,15,13,50,28.30
2023,05,15,13,51,28.30
2023,05,15,13,52,28.30
2023,05,15,13,53,28.30
2023,05,15,13,54,28.30
2023,05,15,13,55,28.30
2023,05,15,13,56,28.40
2023,05,15,13,57,28.50
2023,05,15,13,58,28.60
2023,05,15,13,59,28.60
2023,05,15,14,00,28.70
2023,05,15,14,01,28.70
2023,05,15,14,02,28.80
2023,05,15,14,03,28.80
2023,05,15,14,04,28.80
2023,05,15,14,05,28.80
2023,05,15,14,06,28.80
2023,05,15,14,07,28.80
2023,05,15,14,08,28.80
2023,05,15,14,09,28.80
2023,05,15,14,10,28.90
2023,05,15,14,11,28.90
2023,05,15,14,12,28.90
2023,05,15,14,13,28.90
2023,05,15,14,14,28.90
2023,05,15,14,15,28.90
2023,05,15,14,16,29.00
2023,05,15,14,17,29.00
2023,05,15,14,18,29.00
2023,05,15,14,19,29.10
2023,05,15,14,20,29.10
2023,05,15,14,21,29.20
2023,05,15,14,22,29.20
2023,05,15,14,23,29.30
2023,05,15,14,24,29.30
2023,05,15,14,25,29.40
2023,05,15,14,26,29.50
2023,05,15,14,27,29.50
2023,05,15,14,28,29.60
2023,05,15,14,29,29.70
2023,05,15,14,30,29.80
2023,05,15,14,31,29.80
2023,05,15,14,32,29.70
2023,05,15,14,33,29.70
2023,05,15,14,34,29.70
2023,05,15,14,35,29.70
2023,05,15,14,36,29.70
2023,05,15,14,37,29.70
2023,05,15,14,38,29.80
2023,05,15,14,39,29.80
2023,05,15,14,40,29.80
2023,05,15,14,41,29.80
2023,05,15,14,42,29.80
2023,05,15,14,43,29.80
2023,05,15,14,44,29.70
2023,05,15,14,45,29.70
2023,05,15,14,46,29.70
2023,05,15,14,47,29.70
2023,05,15,14,48,29.70
2023,05,15,14,49,29.80
2023,05,15,14,50,29.80
2023,05,15,14,51,29.90
2023,05,15,14,52,29.90
2023,05,15,14,53,29.90
2023,05,15,14,54,29.90
2023,05,15,14,55,30.00
2023,05,15,14,56,30.00
2023,05,15,14,57,30.00
2023,05,15,14,58,30.00
2023,05,15,14,59,30.00
2023,05,15,15,00,30.00
2023,05,15,15,01,30.00
2023,05,15,15,02,29.90
2023,05,15,15,03,29.90
2023,05,15,15,04,29.90
2023,05,15,15,05,29.90
2023,05,15,15,06,29.80
2023,05,15,15,07,29.80
2023,05,15,15,08,29.80
2023,05,15,15,09,29.80
2023,05,15,15,10,29.70
2023,05,15,15,11,29.70
2023,05,15,15,12,29.70
2023,05,15,15,13,29.60
2023,05,15,15,14,29.60
2023,05,15,15,15,29.60
2023,05,15,15,16,29.60
2023,05,15,15,17,29.60
2023,05,15,15,18,29.60
2023,05,15,15,19,29.70
2023,05,15,15,20,29.70
2023,05,15,15,21,29.70
2023,05,15,15,22,29.80
2023,05,15,15,23,29.90
2023,05,15,15,24,29.90
2023,05,15,15,25,30.00
2023,05,15,15,26,30.00
2023,05,15,15,27,30.10
2023,05,15,15,28,30.10
2023,05,15,15,29,30.10
2023,05,15,15,30,30.10
2023,05,15,15,31,30.20
2023,05,15,15,32,30.20
2023,05,15,15,33,30.20
2023,05,15,15,34,30.20
2023,05,15,15,35,30.10
2023,05,15,15,36,30.00
2023,05,15,15,37,30.00
2023,05,15,15,38,29.90
2023,05,15,15,39,29.80
2023,05,15,15,40,29.70
2023,05,15,15,41,29.60
2023,05,15,15,42,29.60
2023,05,15,15,43,29.50
2023,05,15,15,44,29.50
2023,05,15,15,45,29.50
2023,05,15,15,46,29.50
2023,05,15,15,47,29.50
2023,05,15,15,48,29.50
2023,05,15,15,49,29.50
2023,05,15,15,50,29.60
2023,05,15,15,51,29.60
2023,05,15,15,52,29.60
2023,05,15,15,53,29.50
2023,05,15,15,54,29.50
2023,05,15,15,55,29.50
2023,05,15,15,56,29.50
2023,05,15,15,57,29.40
2023,05,15,15,58,29.50
2023,05,15,15,59,29.50
2023,05,15,16,00,29.50
2023,05,15,16,01,29.50
2023,05,15,16,02,29.60
2023,05,15,16,03,29.60
2023,05,15,16,04,29.70
2023,05,15,16,05,29.80
2023,05,15,16,06,29.80
2023,05,15,16,07,29.80
2023,05,15,16,08,29.90
2023,05,15,16,09,29.90
2023,05,15,16,10,29.90
2023,05,15,16,11,29.90
2023,05,15,16,12,30.00
2023,05,15,16,13,30.00
2023,05,15,16,14,30.00
2023,05,15,16,15,30.10
2023,05,15,16,16,30.10
2023,05,15,16,17,30.10
2023,05,15,16,18,30.20
2023,05,15,16,19,30.20
2023,05,15,16,20,30.30
2023,05,15,16,21,30.30
2023,05,15,16,22,30.40
2023,05,15,16,23,30.40
2023,05,15,16,24,30.40
2023,05,15,16,25,30.40
2023,05,15,16,26,30.40
2023,05,15,16,27,30.40
2023,05,15,16,28,30.30
2023,05,15,16,29,30.30
2023,05,15,16,30,30.30
2023,05,15,16,31,30.30
2023,05,15,16,32,30.20
2023,05,15,16,33,30.20
2023,05,15,16,34,30.20
2023,05,15,16,35,30.20
2023,05,15,16,36,30.20
2023,05,15,16,37,30.20
2023,05,15,16,38,30.20
2023,05,15,16,39,30.20
2023,05,15,16,40,30.20
2023,05,15,16,41,30.20
2023,05,15,16,42,30.20
2023,05,15,16,43,30.10
2023,05,15,16,44,30.10
2023,05,15,16,45,30.00
2023,05,15,16,46,29.90
2023,05,15,16,47,29.80
2023,05,15,16,48,29.80
2023,05,15,16,49,29.70
2023,05,15,16,50,29.70
2023,05,15,16,51,29.60
2023,05,15,16,52,29.60
2023,05,15,16,53,29.50
2023,05,15,16,54,29.50
2023,05,15,16,55,29.40
2023,05,15,16,56,29.40
2023,05,15,16,57,29.40
2023,05,15,16,58,29.40
2023,05,15,16,59,29.40
2023,05,15,17,00,29.40
2023,05,15,17,01,29.50
2023,05,15,17,02,29.50
2023,05,15,17,03,29.60
2023,05,15,17,04,29.70
2023,05,15,17,05,29.70
2023,05,15,17,06,29.80
2023,05,15,17,07,29.80
2023,05,15,17,08,29.90
2023,05,15,17,09,29.90
2023,05,15,17,10,30.00
2023,05,15,17,11,30.00
2023,05,15,17,12,30.10
2023,05,15,17,13,30.20
2023,05,15,17,14,30.30
2023,05,15,17,15,30.30
2023,05,15,17,16,30.30
2023,05,15,17,17,30.30
2023,05,15,17,18,30.30
2023,05,15,17,19,30.30